Regional Weather Roundup
Issued by NWS Charleston, SC

Current Version | Previous Version | Text Only | Print | Product List | Glossary Off
Versions: 1 2 3 4 5 6 7 8 9 10 11 12 13 14 15 16 17 18 19 20 21 22 23 24 25 26 27 28 29 30 31 32 33 34 35 36 37 38 39 40 41 42 43 44 45 46 47 48 49 50

000
ASUS42 KCHS 221312
RWRCHS

Regional Weather Roundup
National Weather Service Charleston SC
800 AM EST THU FEB 22 2018

NOTE: "fair" indicates few or no clouds below 12,000 feet with no
significant weather and/or obstructions to visibility.

Not all stations are quality controlled. Use data with caution,
especially dewpoint observations.

SCZ027-030-031-034>040-042>050-221400-
...Southeast South Carolina...

CITY           SKY/WX    TMP DP  RH WIND       PRES   REMARKS
N Charleston   FAIR      66  66 100 CALM      30.48R
Waterfront Prk   N/A     63  63 100 CALM      30.33R
Mount Pleasant FAIR      61  61 100 CALM      30.48R
Johns Island   FOG       64  64 100 CALM      30.48R VSB<1/4
Pinopolis        N/A     61  61 100 CALM      30.39R
Moncks Corner  RAIN      57  57 100 CALM      30.48R VSB<1/4
Summerville      N/A     59  59 100 CALM      30.49R FOG
Beaufort MCAS  FOG       66  66 100 CALM      30.48R VSB 1/2
Beaufort Arpt  FOG       63  63 100 CALM      30.47R VSB 1/4
Hilton Head Is FOG       61  61 100 CALM      30.46R VSB 1/4
Walterboro     FOG       61  61 100 CALM      30.49R VSB 1/4
Allendale      CLOUDY    68  66  94 VRB3      30.47R

...Southern Midlands and Pee Dee...

CITY           SKY/WX    TMP DP  RH WIND       PRES   REMARKS
Georgetown     FAIR      63  63 100 S3        30.49R
Kingstree      FOG       61  59  94 CALM      30.49R VSB<1/4
Orangeburg     CLOUDY    68  65  90 S6        30.48R
Barnwell         N/A     70  70 100 CALM      30.47S
Aiken          CLOUDY    64  64 100 S3        30.50R
Manning        HAZE      63  54  72 MISG      30.49R VSB 1/4
Columbia       FAIR      69  67  93 SE5       30.46R
Sumter         CLOUDY    66  66 100 SE5       30.46R FOG
Florence       FOG       64  64 100 CALM      30.49R VSB 1/4
Myrtle Beach   PTSUNNY   63  63 100 S5        30.50R VSB 1/4
N Myrtle Beach CLOUDY    66  65  96 S6        30.49R

$$

GAZ063-065-086>088-099>101-113>116-118-119-134>141-150-221400-
...Southeast Georgia...

CITY           SKY/WX    TMP DP  RH WIND       PRES   REMARKS
Savannah Arpt  FAIR      63  63 100 CALM      30.47R
Hunter AAF     SUNNY     62  61  95 CALM      30.45R
Fort Stewart   MOSUNNY   60  60 100 CALM      30.45R
Statesboro     CLOUDY    68  32  26 CALM      30.48R
Sylvania       CLOUDY    67  67 100 CALM      30.48R FOG
Claxton        CLOUDY    68  67  98 CALM      30.47R FOG

...CSRA, Central and far Southeast Georgia...

CITY           SKY/WX    TMP DP  RH WIND       PRES   REMARKS
Thomson        CLOUDY    67  63  88 W6        30.51R
Augusta-Bush   CLOUDY    70  66  87 CALM      30.46R
Augusta-Daniel CLOUDY    69  65  86 SE5       30.47R
Swainsboro     CLOUDY    68  68 100 CALM      30.47R
Vidalia        CLOUDY    70  68  94 CALM      30.46S
Eastman        CLOUDY    70  60  70 SE5       30.48R
Hazlehurst     FAIR      68  68 100 CALM      30.45R
Alma           CLOUDY    70  66  87 CALM      30.45R
Waycross       PTSUNNY   68  65  90 CALM      30.45R
Jesup          CLOUDY    66  64  94 CALM      30.46R
Baxley         CLOUDY    63  63 100 CALM      30.45R FOG
Brunswick      FOG       61  59  94 CALM      30.46R VSB 3/4
Saint Simons   FAIR      65  65 100 CALM      30.45R

$$

SCZ027-028-034-036>038-045-046-048>050-GAZ119-141-221400-
...Lake and Supplemental Coastal Observations...

STATION/POSITION TIME  TEMP    WIND        PRES    WAVE   SWELL
                       AIR SEA DIR/SP/G            HT/PER HT/PER/DIR
                 (UTC) (F)     (DEG/KT/KT) (MB)    (FT/S) (FT/S/D)
Winyah Bay       1145   63        CALM     1032.0
Lake Murray      1220   62     180/  2/  6 1030.5R
ACE Basin NERRS  1145   61        CALM     1031.0
Fort Pulaski     1242   63 62  110/  2/  3 1032.0R
Sapelo Island    1200   63        CALM     1031.0

$$

ANZ835-935-AMZ111-154-330-350-352-354-370-450-454-472-221400-
...C-MAN and Buoy Observations...

STATION/POSITION TIME  TEMP    WIND        PRES    WAVE   SWELL
                       AIR SEA DIR/SP/G            HT/PER HT/PER/DIR
                 (UTC) (F)     (DEG/KT/KT) (MB)    (FT/S) (FT/S/D)
Buoy 41004       1250   70 68  180/  4/  6 1031.9R   4/ 8   3/140/ 8
Buoy 41008       1250   63 58   90/  4/  4 1031.1R   4/ 7   3/140/ 7
Folly Beach CMAN 1200   62      30/  2/  2 1032.0R
Capers Nearshore 1208   58 60   80/  4/  6 1031.3R
Fripp Nearshore  1208   58 60   40/  2/  4 1030.9R


STATION/POSITION TIME  TEMP    WIND        PRES    WAVE   SWELL
                       AIR SEA DIR/SP/G            HT/PER HT/PER/DIR
                 (UTC) (F)     (DEG/KT/KT) (MB)    (FT/S) (FT/S/D)
5E St. Marys GA  1300      62                N/A     3/ 6   2/ 90/12
Frying Pan Buoy  1250   71 70  190/  6/  8 1032.5R   4/ 7   3/150/ 7
Buoy 41025       1250   71 68  210/ 10/ 12 1033.2R   4/14   3/100/14
Cape Lookout NC  1200          210/  6/  8 1032.6R
Buoy 41002       1250   72 74  100/  8/ 10 1033.3R   6/15   7/ 50/15
Buoy 41010       NOT AVBL
St Augustine FL  1300   68 65   90/  4/  5 1030.3R


$$




USA.gov is the U.S. government's official web portal to all federal, state and local government web resources and services.